This is the latest recevied weather packets stored in our database for station/object LA9UTA-13. If no packets are shown the sender has not sent any weather packets the latest 10 day(s).
| Time | Temp. | Humidity | Pressure | Rain* | Wind** | Luminosity | Snow |
|---|---|---|---|---|---|---|---|
| 1778003882 | 8.33° C | 31% | 1010.4 hPa | 0 mm | - | 49 W/m² | - |
| 1778002682 | 8.33° C | 30% | 1010.4 hPa | 0 mm | - | 73 W/m² | - |
| 1778001482 | 8.89° C | 29% | 1010.4 hPa | 0 mm | - | 104 W/m² | - |
| 1778000282 | 8.89° C | 27% | 1010.3 hPa | 0 mm | - | 133 W/m² | - |
| 1777999082 | 8.33° C | 27% | 1010.4 hPa | 0 mm | - | 166 W/m² | - |
| 1777997882 | 7.78° C | 31% | 1010.4 hPa | 0 mm | - | 223 W/m² | - |
| 1777996682 | 7.78° C | 31% | 1010.5 hPa | 0 mm | - | 316 W/m² | - |
| 1777995482 | 8.33° C | 25% | 1010.4 hPa | 0 mm | - | 315 W/m² | - |
| 1777994282 | 8.89° C | 23% | 1010.4 hPa | 0 mm | - | 353 W/m² | - |
| 1777993082 | 9.44° C | 24% | 1009.3 hPa | 0 mm | - | 410 W/m² | - |
| 1777991882 | 9.44° C | 24% | 1009.3 hPa | 0 mm | - | 427 W/m² | - |
| 1777990683 | 9.44° C | 22% | 1009.3 hPa | 0 mm | - | 103 W/m² | - |
| 1777989482 | 8.89° C | 25% | 1010.4 hPa | 0 mm | - | 503 W/m² | - |
| 1777988282 | 9.44° C | 23% | 1009.3 hPa | 0 mm | - | 537 W/m² | - |
| 1777987082 | 7.78° C | 22% | 1009.4 hPa | 0 mm | - | 141 W/m² | - |
| 1777985882 | 8.33° C | 26% | 1009.4 hPa | 0 mm | - | 123 W/m² | - |
| 1777984682 | 9.44° C | 26% | 1009.3 hPa | 0 mm | - | 387 W/m² | - |
| 1777983483 | 8.33° C | 27% | 1009.4 hPa | 0 mm | - | 522 W/m² | - |
| 1777982283 | 8.33° C | 28% | 1009.4 hPa | 0 mm | - | 343 W/m² | - |
| 1777981082 | 8.89° C | 27% | 1009.3 hPa | 0 mm | - | 671 W/m² | - |
| 1777979882 | 8.33° C | 29% | 1009.4 hPa | 0 mm | - | 640 W/m² | - |
| 1777978682 | 7.22° C | 32% | 1009.5 hPa | 0 mm | - | 522 W/m² | - |
| 1777977482 | 6.67° C | 33% | 1009.6 hPa | 0 mm | - | 497 W/m² | - |
| 1777976282 | 7.22° C | 35% | 1009.5 hPa | 0 mm | - | 627 W/m² | - |
| 1777975084 | 7.78° C | 31% | 1010.5 hPa | 0 mm | - | 177 W/m² | - |
* Rain latest hour (hover to see other rain measurements)
** Current wind speed in m/s (hover to see current wind gust speed)